Regional Weather Roundup
Issued by NWS Kansas City/Pleasant Hill, MO

Home | Current Version | Previous Version | Text Only | Print | Product List | Glossary On
Versions: 1 2 3 4 5 6 7 8 9 10 11 12 13 14 15 16 17 18 19 20 21 22 23 24 25 26 27 28 29 30 31 32 33 34 35 36 37 38 39 40 41 42 43 44 45 46 47 48 49
000
ASUS43 KEAX 291510
RWREAX

WEATHER ROUNDUP FOR EASTERN KANSAS AND NORTHWEST MISSOURI
NATIONAL WEATHER SERVICE KANSAS CITY/PLEASANT HILL MO
1000 AM CDT SAT AUG 29 2015

KSZ040-057-103>105-MOZ028-029-037-043-291600-
...KANSAS CITY METROPOLITAN AREA...

CITY           SKY/WX    TMP DP  RH WIND       PRES   REMARKS
K.C. INTL      CLOUDY    69  66  90 N5        30.01R FOG
K.C. DOWNTOWN  CLOUDY    71  67  87 N6        30.00R
LEES SUMMIT    CLOUDY    72  67  84 N7        30.01R
OLATHE - IXD   CLOUDY    69  66  90 N6        30.02R
OLATHE - OJC   CLOUDY    69  66  90 N8        30.01R
LAWRENCE       CLOUDY    71  64  78 N5        30.01S

$$

MOZ001>008-011>017-020>025-030>033-038>040-044>046-053-054-291600-
...NORTHERN AND CENTRAL MISSOURI...

CITY           SKY/WX    TMP DP  RH WIND       PRES   REMARKS
ST. JOSEPH     CLOUDY    68  66  93 N9        30.01R
MOSBY          CLOUDY    70  68  94 NW3       30.00R
WARRENSBURG    CLOUDY    70  66  88 S5        30.00R
WHITEMAN AFB   CLOUDY    71  66  84 SW7       30.00R
CLINTON          N/A     73  66  78 CALM      30.02R
SEDALIA        CLOUDY    73  64  73 SW7       30.02R
WARSAW         NOT AVBL
CHILLICOTHE      N/A     76  70  82 VRB5      30.00R
KIRKSVILLE     CLOUDY    71  65  81 SW7       30.01R

$$

MOZ041-047>049-056>058-063>065-088>090-097-291600-
...EASTERN AND SOUTHERN MISSOURI...

CITY           SKY/WX    TMP DP  RH WIND       PRES   REMARKS
ST. LOUIS INTL CLOUDY    77  64  64 SW9       30.04R
SPIRIT OF STL  CLOUDY    75  65  70 SW3       30.02R
COLUMBIA       PTSUNNY   75  64  68 S13       30.02R
JEFFERSON CITY MOSUNNY   76  63  64 S12       30.01S
ROLLA          LGT RAIN  67  65  93 S10       30.03R
OSAGE BEACH    CLOUDY    75  63  64 S9        30.03S
SPRINGFIELD    CLOUDY    70  63  78 S10       30.04R
BRANSON        PTSUNNY   66  64  94 SE8       30.07R
JOPLIN         CLOUDY    75  64  68 SW8       30.02R
WEST PLAINS    HVY RAIN  66  63  90 SE7       30.11S FOG

$$

IAZ060-094-KSZ022-034>040-054-083-096-NEZ052-066-093-291600-
...KANSAS...SOUTHEAST NEBRASKA AND IOWA...

CITY           SKY/WX    TMP DP  RH WIND       PRES   REMARKS
TOPEKA         CLOUDY    67  65  93 N7        30.02S
MANHATTAN      CLOUDY    66  62  87 N8        30.05R
EMPORIA        CLOUDY    68  63  84 VRB5      30.04R
CHANUTE        MOSUNNY   73  64  73 N10       30.02R
WICHITA        MOSUNNY   73  63  70 N13       30.05R
OMAHA          CLOUDY    62  60  93 N9        30.06S
LINCOLN        CLOUDY    62  59  90 N10       30.09R
FALLS CITY     CLOUDY    65  63  93 N8        30.03R
LAMONI         CLOUDY    67  64  90 N9        30.01S
DES MOINES     CLOUDY    66  61  84 N7        30.02R

$$




USA.gov is the U.S. government's official web portal to all federal, state and local government web resources and services.